Location: Koslow
(50.3020°N, 18.5663°E)
Time: 19:37:53
(UTC+00:00)

X-37B - Pass Details

Date: 03 August 2021
Orbit: 381 x 393 km, 45.0° (Epoch: 29 August)

Event Time Altitude Azimuth Distance (km) Brightness Sun altitude
Exits shadow 01:40:00 10° 164° (SSE) 1,402 3.1 -12.8°
Reaches altitude 10° 01:40:06 10° 162° (SSE) 1,393 3.1 -12.8°
Maximum altitude 01:40:45 11° 151° (SSE) 1,367 3.2 -12.7°
Drops below altitude 10° 01:41:23 10° 139° (SE) 1,395 3.3 -12.7°
Sets 01:44:56 0° 96° (E) 2,253 5.0 -12.3°
